Location: *
(34.8620°S, 39.3380°E)
Time: 08:39:49
(UTC+00:00)

SAOCOM 1-B - Pass Details

Date: 05 June 2022
Orbit: 621 x 623 km, 97.9° (Epoch: 06 July)

Event Time Altitude Azimuth Distance (km) Brightness Sun altitude
Rises 15:54:48 0° 333° (NNW) 2,892 ? -19.3°
Reaches altitude 10° 15:57:49 10° 309° (NW) 1,997 ? -19.9°
Maximum altitude 16:00:21 15° 273° (W) 1,686 ? -20.4°
Drops below altitude 10° 16:02:55 10° 237° (WSW) 2,015 ? -20.9°
Sets 16:06:00 0° 214° (SW) 2,933 ? -21.5°
